Total_Precipitation_Accumulation
0.44 0.43 0.44 0.45 0.38 0.33 0.43 0.55 0.85 1.16 1.51 1.83 1.91 1.95 2.00 2.15 2.07 1.83 1.65 1.49 1.35 1.34 1.41 1.40 1.37 1.37 1.39 1.53 1.62 1.84 1.95 1.95 1.90 1.82 1.75 1.73 1.65 1.50 1.34 1.22 1.17 1.23 1.15 1.08
0.47 0.39 0.47 0.46 0.45 0.47 0.55 0.65 0.87 1.20 1.67 1.89 1.89 1.88 1.95 2.07 2.05 1.85 1.55 1.40 1.31 1.30 1.39 1.35 1.32 1.28 1.24 1.35 1.40 1.54 1.69 1.68 1.60 1.58 1.63 1.59 1.56 1.45 1.35 1.26 1.19 1.19 1.13 1.02
0.67 0.43 0.64 0.91 0.70 0.72 0.81 0.83 1.03 1.41 1.62 1.68 1.77 1.81 1.87 2.00 2.11 1.98 1.70 1.58 1.60 1.62 1.60 1.47 1.35 1.29 1.30 1.35 1.39 1.46 1.53 1.47 1.47 1.47 1.44 1.42 1.29 1.23 1.27 1.30 1.21 1.14 1.03 0.92
0.67 0.82 1.30 1.16 0.65 0.73 0.87 0.89 0.94 1.06 1.20 1.37 1.50 1.60 1.76 1.93 2.09 2.08 1.94 1.90 1.91 1.84 1.69 1.54 1.41 1.36 1.36 1.35 1.41 1.49 1.46 1.39 1.32 1.34 1.30 1.27 1.25 1.23 1.23 1.23 1.17 1.12 1.03 0.92
0.91 1.22 1.40 1.13 0.68 0.66 0.97 1.14 0.90 0.91 0.94 0.99 1.03 1.22 1.63 1.79 1.86 1.94 1.93 1.90 1.81 1.73 1.63 1.51 1.38 1.33 1.29 1.29 1.27 1.29 1.26 1.22 1.13 1.16 1.22 1.23 1.21 1.27 1.23 1.14 1.10 1.03 0.97 0.93
1.02 1.37 1.65 1.37 0.66 0.48 0.84 1.54 1.06 0.90 0.95 1.01 1.14 1.41 1.50 1.41 1.40 1.48 1.50 1.53 1.58 1.57 1.48 1.38 1.28 1.19 1.15 1.18 1.17 1.14 1.12 1.11 1.02 1.03 1.10 1.17 1.19 1.22 1.13 1.05 1.01 0.90 0.87 0.91
1.05 1.36 1.53 0.87 0.52 0.68 1.43 1.80 1.20 1.01 1.04 1.16 1.29 1.29 1.07 0.99 1.06 1.16 1.27 1.31 1.33 1.44 1.46 1.30 1.10 1.04 1.09 1.08 1.07 0.97 0.96 1.03 1.03 1.01 1.03 1.04 1.06 1.11 1.06 0.99 0.96 0.94 0.92 0.94
1.15 1.54 1.68 0.76 0.59 1.04 1.26 0.99 0.94 0.96 0.99 1.01 0.94 0.81 0.78 0.81 0.84 0.89 1.05 1.19 1.19 1.30 1.25 1.09 0.97 1.00 1.06 1.04 0.92 0.86 0.94 1.06 1.08 1.05 0.94 0.92 1.06 1.10 1.04 0.98 0.93 0.95 0.95 0.95
1.20 1.44 1.14 0.64 0.63 0.70 0.68 0.74 0.75 0.76 0.70 0.66 0.67 0.64 0.63 0.71 0.78 0.82 0.92 1.03 1.04 1.09 1.07 1.00 0.96 1.02 1.07 1.01 0.88 0.90 0.99 1.06 1.08 1.02 0.99 0.98 1.02 1.02 0.96 0.91 0.84 0.83 0.84 0.87
0.77 0.80 0.60 0.54 0.52 0.48 0.50 0.58 0.60 0.62 0.66 0.58 0.61 0.63 0.64 0.67 0.75 0.83 0.90 0.91 0.92 0.97 0.97 0.94 0.89 0.90 0.91 0.84 0.82 0.93 1.03 1.01 1.02 1.03 1.02 0.96 0.90 0.86 0.84 0.81 0.76 0.73 0.74 0.76
0.71 0.60 0.53 0.51 0.44 0.41 0.45 0.47 0.49 0.54 0.62 0.62 0.61 0.68 0.67 0.68 0.75 0.80 0.86 0.87 0.90 0.98 0.98 0.87 0.82 0.78 0.77 0.78 0.85 0.96 0.96 0.89 0.88 0.92 0.90 0.85 0.74 0.68 0.67 0.62 0.55 0.53 0.54 0.55
0.71 0.57 0.60 0.56 0.41 0.37 0.45 0.51 0.51 0.54 0.63 0.59 0.58 0.66 0.73 0.75 0.73 0.74 0.80 0.82 0.86 0.86 0.87 0.82 0.73 0.70 0.72 0.74 0.75 0.85 0.85 0.79 0.76 0.79 0.77 0.71 0.66 0.61 0.55 0.44 0.41 0.39 0.37 0.39
0.42 0.39 0.39 0.37 0.38 0.44 0.50 0.50 0.55 0.60 0.57 0.50 0.55 0.61 0.71 0.76 0.65 0.63 0.65 0.69 0.76 0.76 0.75 0.72 0.68 0.69 0.71 0.63 0.62 0.71 0.77 0.77 0.67 0.64 0.67 0.65 0.60 0.60 0.63 0.50 0.40 0.37 0.36 0.39
0.36 0.41 0.49 0.53 0.58 0.56 0.53 0.47 0.46 0.45 0.44 0.42 0.48 0.55 0.59 0.62 0.54 0.54 0.60 0.61 0.60 0.64 0.66 0.65 0.63 0.61 0.56 0.53 0.58 0.64 0.64 0.60 0.57 0.58 0.56 0.53 0.52 0.51 0.54 0.62 0.63 0.57 0.46 0.41
0.42 0.45 0.52 0.50 0.49 0.45 0.41 0.38 0.37 0.38 0.38 0.42 0.41 0.44 0.46 0.50 0.50 0.46 0.48 0.48 0.50 0.56 0.58 0.53 0.51 0.54 0.52 0.49 0.53 0.55 0.50 0.46 0.45 0.43 0.43 0.44 0.46 0.45 0.47 0.52 0.58 0.61 0.60 0.51
0.36 0.34 0.36 0.37 0.37 0.35 0.33 0.34 0.34 0.34 0.34 0.36 0.36 0.37 0.37 0.37 0.36 0.33 0.34 0.38 0.54 0.62 0.56 0.48 0.44 0.45 0.45 0.48 0.52 0.52 0.46 0.40 0.36 0.34 0.34 0.35 0.37 0.40 0.45 0.46 0.47 0.53 0.56 0.49
0.37 0.37 0.36 0.31 0.27 0.27 0.27 0.25 0.23 0.25 0.27 0.29 0.29 0.26 0.25 0.26 0.29 0.30 0.33 0.39 0.46 0.49 0.46 0.43 0.38 0.32 0.35 0.42 0.47 0.42 0.37 0.35 0.31 0.29 0.32 0.33 0.34 0.36 0.40 0.38 0.42 0.46 0.43 0.40
0.35 0.31 0.27 0.25 0.22 0.21 0.21 0.18 0.18 0.22 0.23 0.23 0.22 0.22 0.22 0.25 0.29 0.30 0.32 0.37 0.40 0.39 0.35 0.30 0.30 0.28 0.26 0.31 0.38 0.36 0.32 0.33 0.28 0.26 0.28 0.31 0.33 0.34 0.33 0.34 0.36 0.38 0.38 0.37
0.25 0.18 0.17 0.18 0.17 0.17 0.18 0.16 0.17 0.19 0.19 0.20 0.20 0.20 0.21 0.23 0.25 0.26 0.29 0.36 0.41 0.42 0.35 0.25 0.25 0.24 0.22 0.23 0.28 0.28 0.27 0.29 0.28 0.27 0.27 0.29 0.32 0.34 0.32 0.29 0.31 0.33 0.34 0.35
0.17 0.13 0.14 0.14 0.13 0.14 0.16 0.15 0.16 0.18 0.18 0.19 0.19 0.20 0.23 0.22 0.18 0.22 0.30 0.39 0.42 0.38 0.30 0.25 0.20 0.19 0.18 0.18 0.21 0.23 0.25 0.27 0.27 0.24 0.26 0.28 0.30 0.30 0.27 0.25 0.29 0.33 0.36 0.37
0.16 0.14 0.14 0.14 0.13 0.14 0.16 0.17 0.17 0.17 0.17 0.17 0.18 0.18 0.19 0.20 0.17 0.22 0.32 0.41 0.38 0.29 0.24 0.24 0.22 0.18 0.17 0.17 0.19 0.22 0.23 0.24 0.22 0.21 0.24 0.28 0.29 0.26 0.25 0.25 0.26 0.31 0.35 0.38
0.15 0.15 0.17 0.16 0.15 0.16 0.17 0.17 0.17 0.18 0.18 0.19 0.17 0.15 0.18 0.21 0.20 0.24 0.29 0.32 0.28 0.22 0.20 0.19 0.18 0.17 0.17 0.17 0.16 0.18 0.21 0.23 0.22 0.25 0.26 0.24 0.24 0.24 0.23 0.24 0.27 0.29 0.32 0.35
0.20 0.20 0.20 0.18 0.18 0.16 0.15 0.19 0.21 0.21 0.20 0.18 0.16 0.16 0.18 0.22 0.23 0.25 0.25 0.21 0.17 0.18 0.18 0.17 0.16 0.16 0.15 0.13 0.13 0.18 0.20 0.20 0.20 0.23 0.22 0.23 0.24 0.26 0.28 0.28 0.28 0.29 0.33 0.37
0.30 0.30 0.24 0.19 0.18 0.20 0.21 0.20 0.19 0.20 0.19 0.17 0.17 0.17 0.17 0.20 0.22 0.22 0.22 0.20 0.18 0.17 0.15 0.15 0.16 0.13 0.12 0.12 0.14 0.17 0.18 0.18 0.17 0.18 0.18 0.20 0.21 0.23 0.28 0.32 0.31 0.30 0.30 0.30
0.39 0.41 0.32 0.24 0.24 0.25 0.22 0.21 0.19 0.16 0.14 0.13 0.14 0.17 0.17 0.18 0.19 0.20 0.23 0.23 0.22 0.21 0.16 0.15 0.13 0.12 0.13 0.14 0.16 0.17 0.17 0.16 0.14 0.14 0.13 0.16 0.18 0.19 0.21 0.24 0.25 0.24 0.23 0.24
0.44 0.42 0.36 0.31 0.27 0.24 0.21 0.22 0.21 0.17 0.16 0.15 0.15 0.15 0.16 0.18 0.20 0.23 0.25 0.23 0.24 0.21 0.17 0.16 0.16 0.15 0.16 0.17 0.15 0.14 0.15 0.13 0.12 0.12 0.12 0.15 0.17 0.19 0.19 0.20 0.21 0.20 0.22 0.23
0.49 0.42 0.38 0.33 0.26 0.22 0.22 0.25 0.24 0.20 0.17 0.17 0.18 0.17 0.17 0.19 0.21 0.21 0.23 0.23 0.23 0.18 0.16 0.16 0.16 0.15 0.17 0.17 0.15 0.15 0.17 0.15 0.13 0.13 0.15 0.16 0.19 0.22 0.22 0.19 0.19 0.20 0.22 0.23